Regional Weather Roundup
Issued by NWS Charleston, SC

Current Version | Previous Version | Text Only | Print | Product List | Glossary Off
Versions: 1 2 3 4 5 6 7 8 9 10 11 12 13 14 15 16 17 18 19 20 21 22 23 24 25 26 27 28 29 30 31 32 33 34 35 36 37 38 39 40 41 42 43 44 45 46 47 48 49 50

000
ASUS42 KCHS 230125
RWRCHS

REGIONAL WEATHER ROUNDUP
NATIONAL WEATHER SERVICE CHARLESTON SC
900 PM EDT WED OCT 22 2014

NOTE: "FAIR" INDICATES FEW OR NO CLOUDS BELOW 12,000 FEET WITH NO
SIGNIFICANT WEATHER AND/OR OBSTRUCTIONS TO VISIBILITY.

NOT ALL STATIONS ARE QUALITY CONTROLLED BY THE NATIONAL
WEATHER SERVICE. USE DATA WITH CAUTION...ESPECIALLY
DEWPOINT OBSERVATIONS.

SCZ027-030-031-034>040-042>050-230200-
...SOUTH CAROLINA...

CITY           SKY/WX    TMP DP  RH WIND       PRES   REMARKS
N CHARLESTON   CLEAR     57  45  64 NW6       30.05R
WATERFRONT PRK   N/A     63 N/A N/A W3          N/A
FORT JOHNSON   NOT AVBL
JOHNS ISLAND   CLEAR     54  50  87 CALM      30.06R
PINOPOLIS      NOT AVBL
MONCKS CORNER  FAIR      54  50  87 CALM      30.05R
SUMMERVILLE    FAIR      52  50  93 CALM      30.07R
BEAUFORT MCAS  CLEAR     56  50  80 CALM      30.06R
BEAUFORT ARPT  FAIR      59  50  72 NW6       30.06R
HILTON HEAD IS CLEAR     55  48  76 CALM      30.07R
GEORGETOWN     NOT AVBL
WALTERBORO     CLEAR     50  50 100 CALM      30.07R
ORANGEBURG     CLEAR     50  45  83 SW3       30.06R
BARNWELL       FAIR      50  45  81 CALM      30.08R
AIKEN          FAIR      50  45  81 CALM      30.11R
MANNING        FAIR      52  46  82 CALM      30.05S
KINGSTREE      NOT AVBL
COLUMBIA       CLEAR     60  41  49 N7        30.06R
SUMTER         CLEAR     56  46  67 NW8       30.04R
FLORENCE       CLEAR     58  43  57 N9        30.04R
MYRTLE BEACH   CLEAR     57  45  62 W8        30.02R
N MYRTLE BEACH CLEAR     56  48  74 CALM      30.01R

$$

GAZ063-065-086>088-099>101-113>116-118-119-134-136>141-150-230200-
...GEORGIA...

CITY           SKY/WX    TMP DP  RH WIND       PRES   REMARKS
SAVANNAH ARPT  CLEAR     57  48  72 CALM      30.06R
HUNTER AAF     CLEAR     55  46  71 W1        30.04R
FORT STEWART   CLEAR     52  47  85 CALM      30.05R
STATESBORO     NOT AVBL
SYLVANIA       CLEAR     56  53  90 CALM      30.08R
CLAXTON        FAIR      52  52 100 CALM      30.07R
THOMSON        CLEAR     49  49 100 CALM      30.13R
AUGUSTA-BUSH   CLEAR     50  43  77 CALM      30.07R
AUGUSTA-DANIEL CLEAR     62  41  46 N5        30.08R
SWAINSBORO     FAIR      54  46  76 MISG      30.08R
VIDALIA        CLEAR     55  46  71 CALM      30.07S
ALMA           CLEAR     51  47  86 CALM      30.05R
WAYCROSS       CLEAR     57  54  88 CALM      30.05S
JESUP          FAIR      54  52  94 CALM      30.06R
BRUNSWICK      CLEAR     54  50  87 CALM      30.06R
SAINT SIMONS   CLEAR     59  48  67 N5        30.04S

$$

SCZ027-028-034-036>038-045-046-048>050-GAZ119-141-230200-
...LAKE AND SUPPLEMENTAL COASTAL OBSERVATIONS...

STATION/POSITION TIME  TEMP    WIND        PRES    WAVE   SWELL
                       AIR SEA DIR/SP/G            HT/PER HT/PER/DIR
                 (UTC) (F)     (DEG/KT/KT) (MB)    (FT/S) (FT/S/D)
UPR LAKE MARION  NOT AVBL
WINYAH BAY       0100   58     290/  2     1016.0S
LAKE MURRAY      0100   60     350/  4/  8 1017.6S
ACE BASIN NERRS  0100   54        CALM     1017.0S
FORT PULASKI     0100   65     350/  4/  5 1018.1R
SAPELO ISLAND    NOT AVBL

$$

ANZ835-935-AMZ111-154-330-350-352-354-374-450-454-472-230200-
...C-MAN AND BUOY OBSERVATIONS...

STATION/POSITION TIME  TEMP    WIND        PRES    WAVE   SWELL
                       AIR SEA DIR/SP/G            HT/PER HT/PER/DIR
                 (UTC) (F)     (DEG/KT/KT) (MB)    (FT/S) (FT/S/D)
FOLLY BEACH CMAN 0100   61     310/  4/  5 1018.0R
BUOY 41004       0100   67 78  340/ 14/ 17 1016.3R   3/ 6   2/ 9
BUOY 41008       0100   69 76  360/ 12/ 16 1017.0R   3/ 6   2/ 70/ 6
5E ST. MARYS GA  0100      77                N/A     4/ 6
FRYING PAN BUOY  0100   66 75  340/ 16/ 19 1016.2R   3/ 4   2/ 60/10
BUOY 41025       0100   62     310/ 27/ 33 1011.3R   7/ 5   2/ 40/11
CAPE LOOKOUT NC  0100   61     320/ 14/ 18 1014.0R
BUOY 41002       0043   70 78  320/ 19/ 23 1013.9    7/ 6   2/ 40/10
BUOY 41010       0100   76 81  350/ 14/ 17 1014.8R   4/ 5   2/ 80/10
BUOY 41012       NOT AVBL
ST AUGUSTINE FL  0100   69      20/ 15/ 18 1017.5R
CAPERS NEARSHORE NOT AVBL
FRIPP NEARSHORE  NOT AVBL


$$



USA.gov is the U.S. government's official web portal to all federal, state and local government web resources and services.